BREEZE-M R/B, 42935

Orbit data source: Space-Track

BREEZE-M R/B, 42935 is space debris in HEO originally from a launch on Mon, 11 Sep 2017 UTC launched from the Tyuratam Missile And Space Complex (TTMTR). Debris objects in space refer to the collection of defunct objects orbiting the Earth. Examples of debris include non-operational satellites, rocket bodies, and fragments generated from explosions, collisions, or faulty payload assembly.

Loading next visibility...
Identifier
42935, 2017-053B
Orbit
HEO
Last TLE update
4 days ago
Origin
Manufacturer
Khrunichev
Mission
Spacecraft
Bus & Motor
BRIZ, Unknown motor
Mass
~1,600 kg wet, 1,600 kg dry
Launch date (UTC)
2017-09-11 (8 years ago)
Launch vehicle
Unknown
Launch site
Tyuratam Missile And Space Complex (TTMTR)
Object type
Payload
Rocket body
Debris
Shape & HBR
Cyl, 4 m
Radar Cross Section
14.451 m², Large (>1 m²)

Expand to show TLE details & history

TLE from 4 days ago
0 BREEZE-M R/B
1 42935U 17053B   25182.91535119 -.00000071  00000-0  00000-0 0  9990
2 42935  22.9900 118.2497 5899940 211.5615  93.0968  2.19135972 62477
Epoch: 2025-07-01T21:58Z
TLE epoch observation values (Epoch: 2025-07-01T21:58:06.342Z)
Latitude
0.00002°
Longitude
-131.50313°
Altitude
26,472.299 km
Speed
2.889 km/s
True Right ascension
07h 52m 54s
True Declination
0° 00' 00"
Sunlit
Object was in daylight at epoch
Visualization orbit readout
Latitude
2.57492°
Longitude
41.61723°
Altitude
4,841.675 km
Speed
7.425 km/s
Apparent Right ascension
18h 44m 01s
Apparent Declination
-28° 32' 48"
Sunlit
Object is in full shadow
Visualization observer readout
Local Sidereal Time
20:21:01
Azimuth
202.281° SSW
Elevation
17.919°
Doppler factor
1
Orbital elements
Apogee altitude
33,435.622 km
Perigee altitude
3,888.493 km
Semi-major axis
25,040.194 km
Eccentricity
0.58999
Inclination
22.99°
RAAN
118.2497°
Arg. of periapsis
211.5615°
True anomaly
Unknown
Mean anomaly
93.0968°
Eccentric anomaly
Unknown
Mean motion
0.54776 °/min
Orbital period
657.23 mins
BSTAR
0
Loading maneuver chart data...
Loading SW <> Apogee altitude chart data...
Loading historical data...
Loading historical data...
Loading historical data...
Loading historical data...
Loading historical data...
Loading historical data...
Loading historical data...
Other satellites on launch #53 in the year 2017 (2017-09-11 UTC)

BREEZE-M R/B Visibility forecast

Observer location: undefined°, undefined°

Span
Click to sort rows by Start time (UTC) header in descending order
Start Az.
Max El. time (UTC)
Max El. Az.
Max El.
End time (UTC)
End Az.
6 mins2025-07-06 08:23:11.872Z202.249° SSW2025-07-06 08:23:11.872Z202.249° SSW17.053°2025-07-06 08:29:11.872Z183.748° SSW
551 mins2025-07-06 21:09:11.872Z229.159° WSW2025-07-07 05:51:11.872Z220.469° SW35.417°2025-07-07 06:20:11.872Z148.041° SSE
|